EWG3CL EDDK-LEPA

Flight info

Callsign EWG3CL
Flight time 1h 57m
Altitude 35000
Route NVO2R NVO Y868 NAVAK Z283 SOPOK DCT ROUSY DCT GTQ DCT POGOL DCT LASAT DCT MOROK DCT GILIR DCT GEVEA DCT INCUS DCT BALSI DCT RETNO DCT TUPOX DCT MTG DCT DIVKO DCT VATIR DCT PIVUS DCT BODEQ DCT VERSO L129 LUNIK
Aircraft A320/M-SDE3FGHIRWY/LB1

Departure

Time 2026-04-24 10:36
Airport Cologne Bonn Airport (EDDK)

Arrival

Time 2026-04-24 12:33
Airport Palma de Mallorca Airport (LEPA)
Time Latitude Longitude Altitude Speed Heading
2026-04-24 09:33 50.87876 7.12450 234 ft 0 kts 288°
2026-04-24 10:24 50.87869 7.12479 234 ft 4 kts 300°
2026-04-24 10:25 50.87853 7.12513 234 ft 4 kts 320°
2026-04-24 10:25 50.87831 7.12535 232 ft 4 kts 339°
2026-04-24 10:25 50.87805 7.12546 236 ft 4 kts 354°
2026-04-24 10:25 50.87778 7.12547 235 ft 4 kts
2026-04-24 10:26 50.87752 7.12539 236 ft 4 kts 15°
2026-04-24 10:26 50.87742 7.12535 233 ft 0 kts 18°
2026-04-24 10:28 50.87774 7.12566 233 ft 12 kts 48°
2026-04-24 10:28 50.87770 7.12691 233 ft 11 kts 128°
2026-04-24 10:29 50.87719 7.12777 232 ft 10 kts 136°
2026-04-24 10:29 50.87671 7.12844 232 ft 8 kts 138°
2026-04-24 10:29 50.87626 7.12909 232 ft 12 kts 138°
2026-04-24 10:29 50.87544 7.13023 232 ft 19 kts 137°
2026-04-24 10:30 50.87449 7.13160 232 ft 17 kts 137°
2026-04-24 10:30 50.87365 7.13283 232 ft 16 kts 136°
2026-04-24 10:30 50.87291 7.13394 233 ft 13 kts 136°
2026-04-24 10:30 50.87232 7.13480 235 ft 10 kts 137°
2026-04-24 10:31 50.87192 7.13540 236 ft 6 kts 137°
2026-04-24 10:31 50.87157 7.13590 238 ft 11 kts 139°
2026-04-24 10:31 50.87072 7.13708 241 ft 18 kts 138°
2026-04-24 10:31 50.86972 7.13849 245 ft 20 kts 137°
2026-04-24 10:32 50.86874 7.13991 254 ft 18 kts 138°
2026-04-24 10:32 50.86770 7.14132 255 ft 21 kts 146°
2026-04-24 10:32 50.86646 7.14266 261 ft 22 kts 136°
2026-04-24 10:32 50.86526 7.14441 264 ft 24 kts 139°
2026-04-24 10:33 50.86401 7.14620 272 ft 25 kts 138°
2026-04-24 10:33 50.86273 7.14803 279 ft 25 kts 137°
2026-04-24 10:33 50.86144 7.14990 286 ft 25 kts 138°
2026-04-24 10:33 50.86058 7.15125 293 ft 13 kts 124°
2026-04-24 10:34 50.86049 7.15247 294 ft 10 kts 74°
2026-04-24 10:34 50.86087 7.15327 292 ft 8 kts 37°
2026-04-24 10:34 50.86139 7.15355 291 ft 8 kts
2026-04-24 10:34 50.86190 7.15346 293 ft 7 kts 352°
2026-04-24 10:35 50.86276 7.15321 287 ft 19 kts 349°
2026-04-24 10:35 50.86436 7.15243 282 ft 30 kts 328°
2026-04-24 10:35 50.86740 7.14810 269 ft 93 kts 316°
2026-04-24 10:35 50.87364 7.13890 242 ft 149 kts 317°
2026-04-24 10:36 50.88203 7.12664 587 ft 167 kts 315°
2026-04-24 10:36 50.89056 7.11417 1290 ft 168 kts 317°
2026-04-24 10:36 50.89949 7.10112 1847 ft 183 kts 317°
2026-04-24 10:36 50.90752 7.08396 2229 ft 202 kts 297°
2026-04-24 10:37 50.91100 7.06191 2797 ft 212 kts 276°
2026-04-24 10:37 50.90876 7.03850 3423 ft 220 kts 251°
2026-04-24 10:37 50.90168 7.01637 3881 ft 232 kts 249°
2026-04-24 10:37 50.89570 6.99099 4130 ft 258 kts 256°
2026-04-24 10:38 50.89043 6.96289 4697 ft 271 kts 257°
2026-04-24 10:38 50.88509 6.93393 5584 ft 278 kts 257°
2026-04-24 10:38 50.87943 6.90431 6457 ft 283 kts 256°
2026-04-24 10:38 50.87344 6.87445 7377 ft 285 kts 255°
2026-04-24 10:39 50.86723 6.84452 8363 ft 288 kts 254°
2026-04-24 10:39 50.86084 6.81420 9328 ft 293 kts 253°
2026-04-24 10:39 50.85429 6.78350 10219 ft 296 kts 253°
2026-04-24 10:39 50.84765 6.75250 10976 ft 299 kts 253°
2026-04-24 10:40 50.84081 6.72051 11358 ft 317 kts 253°
2026-04-24 10:40 50.83345 6.68623 11529 ft 341 kts 253°
2026-04-24 10:40 50.82606 6.64948 11736 ft 359 kts 259°
2026-04-24 10:40 50.82318 6.61058 12260 ft 363 kts 271°
2026-04-24 10:41 50.82369 6.56990 12912 ft 367 kts 273°
2026-04-24 10:41 50.82422 6.52938 13570 ft 371 kts 272°
2026-04-24 10:41 50.82470 6.48832 14214 ft 375 kts 272°
2026-04-24 10:41 50.82517 6.44701 14799 ft 378 kts 272°
2026-04-24 10:42 50.82562 6.40587 15387 ft 381 kts 272°
2026-04-24 10:42 50.82608 6.36333 15982 ft 383 kts 272°
2026-04-24 10:42 50.82651 6.32159 16564 ft 386 kts 271°
2026-04-24 10:42 50.82698 6.27901 17135 ft 388 kts 271°
2026-04-24 10:43 50.82747 6.23617 17705 ft 391 kts 271°
2026-04-24 10:43 50.82794 6.19303 18262 ft 393 kts 271°
2026-04-24 10:43 50.82839 6.14973 18794 ft 395 kts 271°
2026-04-24 10:43 50.82879 6.10611 19264 ft 398 kts 270°
2026-04-24 10:44 50.82914 6.06230 19728 ft 400 kts 270°
2026-04-24 10:44 50.82947 6.01813 20188 ft 403 kts 269°
2026-04-24 10:44 50.82646 5.97410 20633 ft 404 kts 255°
2026-04-24 10:44 50.81582 5.93306 21066 ft 405 kts 238°
2026-04-24 10:45 50.79794 5.89788 21518 ft 407 kts 222°
2026-04-24 10:45 50.77498 5.87273 21962 ft 409 kts 207°
2026-04-24 10:45 50.74957 5.85220 22422 ft 410 kts 208°
2026-04-24 10:45 50.72437 5.83085 22883 ft 412 kts 209°
2026-04-24 10:46 50.69920 5.80884 23326 ft 414 kts 209°
2026-04-24 10:46 50.67404 5.78664 23781 ft 415 kts 209°
2026-04-24 10:46 50.64877 5.76443 24157 ft 417 kts 209°
2026-04-24 10:46 50.62320 5.74267 24507 ft 418 kts 205°
2026-04-24 10:47 50.59581 5.72675 24853 ft 421 kts 195°
2026-04-24 10:47 50.56686 5.71903 25193 ft 424 kts 185°
2026-04-24 10:47 50.53733 5.71962 25523 ft 427 kts 175°
2026-04-24 10:47 50.50777 5.72547 25854 ft 429 kts 174°
2026-04-24 10:48 50.47810 5.73129 26197 ft 430 kts 174°
2026-04-24 10:48 50.44830 5.73696 26519 ft 432 kts 174°
2026-04-24 10:48 50.41837 5.74261 26830 ft 434 kts 174°
2026-04-24 10:48 50.38835 5.74829 27132 ft 436 kts 174°
2026-04-24 10:49 50.35824 5.75399 27426 ft 437 kts 174°
2026-04-24 10:49 50.32797 5.75971 27710 ft 439 kts 175°
2026-04-24 10:49 50.29748 5.76544 28002 ft 441 kts 175°
2026-04-24 10:49 50.26698 5.77118 28275 ft 442 kts 174°
2026-04-24 10:50 50.23676 5.78081 28533 ft 446 kts 166°
2026-04-24 10:50 50.20674 5.79421 28797 ft 448 kts 166°
2026-04-24 10:50 50.17677 5.80764 29059 ft 449 kts 166°
2026-04-24 10:50 50.14704 5.82093 29410 ft 449 kts 166°
2026-04-24 10:51 50.11711 5.83430 29810 ft 448 kts 166°
2026-04-24 10:51 50.08718 5.84763 30198 ft 447 kts 166°
2026-04-24 10:51 50.05729 5.86090 30538 ft 446 kts 166°
2026-04-24 10:51 50.02755 5.87407 30882 ft 444 kts 166°
2026-04-24 10:52 49.99788 5.88720 31247 ft 442 kts 166°
2026-04-24 10:52 49.96828 5.90027 31592 ft 441 kts 166°
2026-04-24 10:52 49.93886 5.91327 31932 ft 439 kts 166°
2026-04-24 10:52 49.90949 5.92623 32245 ft 439 kts 166°
2026-04-24 10:53 49.88016 5.93916 32556 ft 438 kts 166°
2026-04-24 10:53 49.85088 5.95202 32877 ft 437 kts 166°
2026-04-24 10:53 49.82164 5.96482 33220 ft 435 kts 166°
2026-04-24 10:53 49.79248 5.97758 33562 ft 434 kts 165°
2026-04-24 10:54 49.76352 5.99027 33911 ft 432 kts 165°
2026-04-24 10:54 49.73466 6.00285 34249 ft 431 kts 166°
2026-04-24 10:54 49.70582 6.01538 34533 ft 430 kts 166°
2026-04-24 10:54 49.67706 6.02788 34805 ft 429 kts 166°
2026-04-24 10:55 49.64836 6.04038 35054 ft 428 kts 166°
2026-04-24 10:55 49.62001 6.05273 35213 ft 429 kts 166°
2026-04-24 10:55 49.59124 6.06528 35249 ft 430 kts 166°
2026-04-24 10:56 49.53355 6.09029 35245 ft 430 kts 165°
2026-04-24 10:56 49.47720 6.12093 35247 ft 432 kts 153°
2026-04-24 10:57 49.42827 6.17498 35249 ft 435 kts 143°
2026-04-24 10:57 49.38122 6.23350 35250 ft 435 kts 143°
2026-04-24 10:58 49.33392 6.29169 35230 ft 436 kts 143°
2026-04-24 10:58 49.28660 6.34973 35226 ft 436 kts 143°
2026-04-24 10:59 49.23914 6.40800 35221 ft 437 kts 143°
2026-04-24 10:59 49.19173 6.46615 35232 ft 437 kts 143°
2026-04-24 11:00 49.14427 6.52428 35229 ft 437 kts 143°
2026-04-24 11:00 49.09698 6.58191 35231 ft 437 kts 143°
2026-04-24 11:01 49.04935 6.63980 35228 ft 436 kts 142°
2026-04-24 11:01 48.99885 6.69035 35225 ft 434 kts 157°
2026-04-24 11:02 48.94071 6.71308 35212 ft 433 kts 176°
2026-04-24 11:02 48.88051 6.71212 35209 ft 433 kts 181°
2026-04-24 11:03 48.82017 6.70968 35208 ft 434 kts 181°
2026-04-24 11:03 48.76012 6.70731 35211 ft 434 kts 181°
2026-04-24 11:04 48.69975 6.70492 35214 ft 434 kts 181°
2026-04-24 11:04 48.63909 6.70263 35212 ft 435 kts 181°
2026-04-24 11:05 48.57868 6.70029 35217 ft 435 kts 181°
2026-04-24 11:05 48.51823 6.69792 35212 ft 435 kts 181°
2026-04-24 11:06 48.45775 6.69564 35213 ft 435 kts 181°
2026-04-24 11:06 48.39718 6.69330 35206 ft 435 kts 181°
2026-04-24 11:07 48.31665 6.69015 35202 ft 435 kts 181°
2026-04-24 11:07 48.24632 6.68751 35196 ft 435 kts 181°
2026-04-24 11:08 48.19560 6.68562 35194 ft 435 kts 180°
2026-04-24 11:08 48.13507 6.68330 35192 ft 435 kts 180°
2026-04-24 11:09 48.07496 6.68095 35188 ft 435 kts 180°
2026-04-24 11:09 48.01430 6.67864 35196 ft 435 kts 180°
2026-04-24 11:10 47.95375 6.67636 35191 ft 435 kts 180°
2026-04-24 11:10 47.89317 6.67404 35194 ft 435 kts 180°
2026-04-24 11:11 47.83266 6.67173 35203 ft 435 kts 180°
2026-04-24 11:11 47.77211 6.66953 35205 ft 435 kts 180°
2026-04-24 11:12 47.71157 6.66734 35205 ft 435 kts 180°
2026-04-24 11:12 47.65098 6.66503 35212 ft 435 kts 180°
2026-04-24 11:13 47.59045 6.66270 35225 ft 435 kts 180°
2026-04-24 11:13 47.52991 6.66051 35226 ft 435 kts 180°
2026-04-24 11:14 47.46972 6.65827 35229 ft 435 kts 180°
2026-04-24 11:14 47.40993 6.64585 35219 ft 437 kts 197°
2026-04-24 11:15 47.35605 6.60417 35212 ft 442 kts 216°
2026-04-24 11:15 47.30916 6.54531 35191 ft 443 kts 218°
2026-04-24 11:16 47.26220 6.48647 35193 ft 443 kts 218°
2026-04-24 11:16 47.21510 6.42792 35185 ft 443 kts 218°
2026-04-24 11:17 47.16802 6.36938 35179 ft 443 kts 218°
2026-04-24 11:17 47.12097 6.31089 35176 ft 443 kts 218°
2026-04-24 11:18 47.07115 6.25905 35177 ft 438 kts 204°
2026-04-24 11:18 47.01351 6.23284 35158 ft 432 kts 186°
2026-04-24 11:19 46.95394 6.22472 35160 ft 432 kts 184°
2026-04-24 11:19 46.89397 6.21673 35162 ft 433 kts 184°
2026-04-24 11:20 46.83387 6.20865 35172 ft 433 kts 184°
2026-04-24 11:20 46.77375 6.20057 35177 ft 434 kts 184°
2026-04-24 11:21 46.71369 6.19257 35186 ft 433 kts 184°
2026-04-24 11:21 46.65362 6.18472 35177 ft 433 kts 184°
2026-04-24 11:22 46.59358 6.17683 35182 ft 433 kts 184°
2026-04-24 11:22 46.53352 6.16885 35190 ft 433 kts 184°
2026-04-24 11:23 46.47346 6.16095 35187 ft 433 kts 184°
2026-04-24 11:23 46.41339 6.15310 35189 ft 433 kts 184°
2026-04-24 11:24 46.35331 6.14526 35217 ft 433 kts 184°
2026-04-24 11:24 46.29331 6.13735 35220 ft 433 kts 184°
2026-04-24 11:25 46.23332 6.12887 35215 ft 433 kts 185°
2026-04-24 11:25 46.17369 6.11608 35227 ft 433 kts 188°
2026-04-24 11:26 46.11424 6.10154 35209 ft 433 kts 188°
2026-04-24 11:26 46.05509 6.08782 35194 ft 433 kts 187°
2026-04-24 11:27 45.99555 6.07474 35186 ft 433 kts 187°
2026-04-24 11:27 45.93594 6.06169 35176 ft 434 kts 187°
2026-04-24 11:28 45.87627 6.04855 35178 ft 434 kts 187°
2026-04-24 11:28 45.81650 6.03542 35176 ft 434 kts 187°
2026-04-24 11:29 45.75673 6.02222 35170 ft 435 kts 187°
2026-04-24 11:29 45.69695 6.00895 35152 ft 435 kts 187°
2026-04-24 11:30 45.63712 5.99576 35150 ft 435 kts 187°
2026-04-24 11:30 45.57722 5.98267 35151 ft 435 kts 187°
2026-04-24 11:31 45.51736 5.96948 35149 ft 435 kts 187°
2026-04-24 11:31 45.45755 5.95586 35150 ft 436 kts 189°
2026-04-24 11:32 45.39847 5.93798 35151 ft 437 kts 191°
2026-04-24 11:32 45.33924 5.91804 35149 ft 437 kts 191°
2026-04-24 11:33 45.27987 5.89879 35151 ft 437 kts 191°
2026-04-24 11:33 45.22033 5.88039 35147 ft 438 kts 190°
2026-04-24 11:34 45.16072 5.86215 35146 ft 438 kts 190°
2026-04-24 11:34 45.10107 5.84376 35148 ft 439 kts 190°
2026-04-24 11:35 45.04134 5.82530 35157 ft 439 kts 190°
2026-04-24 11:35 44.98151 5.80679 35144 ft 440 kts 190°
2026-04-24 11:36 44.92164 5.78837 35140 ft 440 kts 190°
2026-04-24 11:36 44.86171 5.76990 35140 ft 440 kts 190°
2026-04-24 11:37 44.80173 5.75158 35138 ft 441 kts 190°
2026-04-24 11:37 44.74172 5.73332 35132 ft 441 kts 190°
2026-04-24 11:38 44.68165 5.71503 35131 ft 442 kts 190°
2026-04-24 11:38 44.62190 5.69684 35140 ft 441 kts 191°
2026-04-24 11:39 44.56189 5.67851 35141 ft 441 kts 191°
2026-04-24 11:39 44.50193 5.66033 35144 ft 440 kts 191°
2026-04-24 11:40 44.44196 5.64225 35143 ft 441 kts 191°
2026-04-24 11:40 44.38203 5.62341 35146 ft 442 kts 195°
2026-04-24 11:41 44.32436 5.59292 35146 ft 443 kts 200°
2026-04-24 11:41 44.26682 5.56136 35150 ft 444 kts 200°
2026-04-24 11:42 44.20961 5.53015 35144 ft 445 kts 200°
2026-04-24 11:42 44.15183 5.49872 35140 ft 445 kts 200°
2026-04-24 11:43 44.09408 5.46729 35149 ft 446 kts 200°
2026-04-24 11:43 44.03627 5.43580 35147 ft 447 kts 200°
2026-04-24 11:44 43.97831 5.40438 35147 ft 447 kts 199°
2026-04-24 11:44 43.92023 5.37295 35143 ft 448 kts 200°
2026-04-24 11:45 43.86205 5.34150 35142 ft 449 kts 200°
2026-04-24 11:45 43.80373 5.31010 35131 ft 451 kts 200°
2026-04-24 11:46 43.74504 5.27858 35135 ft 453 kts 200°
2026-04-24 11:46 43.68618 5.24698 35140 ft 455 kts 200°
2026-04-24 11:47 43.62699 5.21522 35136 ft 457 kts 200°
2026-04-24 11:47 43.56759 5.18347 35142 ft 459 kts 200°
2026-04-24 11:48 43.50798 5.15168 35145 ft 460 kts 201°
2026-04-24 11:48 43.44824 5.11994 35148 ft 461 kts 201°
2026-04-24 11:49 43.39858 5.09311 35148 ft 461 kts 204°
2026-04-24 11:49 43.34401 5.04679 35158 ft 462 kts 215°
2026-04-24 11:50 43.29107 4.99667 35170 ft 462 kts 214°
2026-04-24 11:50 43.23779 4.94688 35162 ft 463 kts 216°
2026-04-24 11:51 43.18443 4.89699 35162 ft 465 kts 216°
2026-04-24 11:51 43.13078 4.84683 35158 ft 467 kts 216°
2026-04-24 11:52 43.07706 4.79655 35158 ft 468 kts 216°
2026-04-24 11:52 43.02117 4.75036 35162 ft 470 kts 211°
2026-04-24 11:53 42.96384 4.70691 35163 ft 471 kts 211°
2026-04-24 11:53 42.90653 4.66351 35172 ft 471 kts 211°
2026-04-24 11:54 42.84952 4.62037 35175 ft 472 kts 211°
2026-04-24 11:54 42.79205 4.57697 35177 ft 472 kts 211°
2026-04-24 11:55 42.73455 4.53381 35184 ft 471 kts 210°
2026-04-24 11:55 42.67717 4.49088 35201 ft 470 kts 210°
2026-04-24 11:56 42.61991 4.44798 35193 ft 470 kts 211°
2026-04-24 11:56 42.56265 4.40502 35198 ft 470 kts 211°
2026-04-24 11:57 42.50540 4.36226 35191 ft 470 kts 210°
2026-04-24 11:57 42.44811 4.31968 35190 ft 470 kts 210°
2026-04-24 11:58 42.39069 4.27720 35188 ft 470 kts 210°
2026-04-24 11:58 42.33344 4.23476 35188 ft 469 kts 211°
2026-04-24 11:59 42.27615 4.19233 35167 ft 469 kts 210°
2026-04-24 11:59 42.21893 4.15015 35193 ft 468 kts 210°
2026-04-24 12:00 42.16175 4.10795 35187 ft 467 kts 210°
2026-04-24 12:00 42.10474 4.06598 35189 ft 467 kts 210°
2026-04-24 12:01 42.04770 4.02407 35188 ft 467 kts 210°
2026-04-24 12:01 41.99067 3.98235 35186 ft 466 kts 210°
2026-04-24 12:02 41.93301 3.94238 35185 ft 467 kts 203°
2026-04-24 12:02 41.86990 3.92111 35173 ft 469 kts 191°
2026-04-24 12:03 41.80547 3.90635 35173 ft 469 kts 191°
2026-04-24 12:03 41.74114 3.89146 35172 ft 469 kts 191°
2026-04-24 12:04 41.67714 3.87673 35172 ft 469 kts 191°
2026-04-24 12:04 41.61278 3.86195 35171 ft 468 kts 191°
2026-04-24 12:05 41.54856 3.84726 35175 ft 468 kts 191°
2026-04-24 12:05 41.48436 3.83250 35168 ft 468 kts 191°
2026-04-24 12:06 41.42013 3.81770 35163 ft 468 kts 191°
2026-04-24 12:06 41.35597 3.80302 35161 ft 467 kts 191°
2026-04-24 12:07 41.29230 3.78857 35173 ft 467 kts 191°
2026-04-24 12:07 41.22836 3.77412 35181 ft 466 kts 191°
2026-04-24 12:08 41.16460 3.75932 35182 ft 464 kts 194°
2026-04-24 12:08 41.10363 3.73168 35182 ft 462 kts 203°
2026-04-24 12:09 41.04378 3.70063 35180 ft 462 kts 203°
2026-04-24 12:09 40.98387 3.66980 35184 ft 461 kts 203°
2026-04-24 12:10 40.92405 3.63917 35186 ft 460 kts 203°
2026-04-24 12:11 40.83455 3.59324 35181 ft 459 kts 203°
2026-04-24 12:11 40.77501 3.56282 35184 ft 459 kts 202°
2026-04-24 12:12 40.71547 3.53248 35183 ft 458 kts 202°
2026-04-24 12:12 40.65606 3.50223 35180 ft 458 kts 202°
2026-04-24 12:13 40.59698 3.47218 35179 ft 458 kts 202°
2026-04-24 12:13 40.53734 3.44195 35175 ft 458 kts 202°
2026-04-24 12:13 40.50757 3.42690 34839 ft 459 kts 202°
2026-04-24 12:14 40.47745 3.41174 33757 ft 467 kts 201°
2026-04-24 12:14 40.44603 3.40012 32786 ft 472 kts 192°
2026-04-24 12:14 40.41325 3.39488 31800 ft 477 kts 183°
2026-04-24 12:14 40.37990 3.39578 30763 ft 482 kts 178°
2026-04-24 12:15 40.34625 3.39780 29585 ft 487 kts 178°
2026-04-24 12:15 40.31225 3.39981 28405 ft 490 kts 178°
2026-04-24 12:15 40.27810 3.40180 27246 ft 493 kts 178°
2026-04-24 12:15 40.24427 3.40374 26461 ft 488 kts 178°
2026-04-24 12:16 40.21054 3.40565 25686 ft 483 kts 178°
2026-04-24 12:16 40.17665 3.40754 24882 ft 479 kts 178°
2026-04-24 12:16 40.14347 3.40937 24104 ft 475 kts 178°
2026-04-24 12:16 40.11102 3.41117 23304 ft 471 kts 178°
2026-04-24 12:17 40.07851 3.41295 22568 ft 465 kts 178°
2026-04-24 12:17 40.04634 3.41471 21860 ft 460 kts 178°
2026-04-24 12:17 40.01452 3.41647 21173 ft 455 kts 178°
2026-04-24 12:17 39.98300 3.41826 20510 ft 451 kts 178°
2026-04-24 12:18 39.95181 3.42007 19871 ft 446 kts 178°
2026-04-24 12:18 39.92093 3.42187 19243 ft 442 kts 178°
2026-04-24 12:18 39.89042 3.42360 18662 ft 437 kts 178°
2026-04-24 12:18 39.86018 3.42529 18050 ft 432 kts 178°
2026-04-24 12:19 39.83029 3.42694 17500 ft 426 kts 178°
2026-04-24 12:19 39.80084 3.42860 16958 ft 420 kts 178°
2026-04-24 12:19 39.77185 3.43021 16424 ft 415 kts 179°
2026-04-24 12:19 39.74335 3.42749 15883 ft 409 kts 193°
2026-04-24 12:20 39.71661 3.41582 15352 ft 403 kts 208°
2026-04-24 12:20 39.69368 3.39629 15121 ft 387 kts 223°
2026-04-24 12:20 39.67556 3.37144 14997 ft 369 kts 236°
2026-04-24 12:20 39.66290 3.34401 14871 ft 341 kts 246°
2026-04-24 12:21 39.65262 3.31735 14683 ft 324 kts 246°
2026-04-24 12:21 39.64264 3.29153 14504 ft 317 kts 246°
2026-04-24 12:21 39.63282 3.26614 14380 ft 313 kts 246°
2026-04-24 12:21 39.62311 3.24099 14256 ft 311 kts 246°
2026-04-24 12:22 39.61336 3.21574 13832 ft 316 kts 246°
2026-04-24 12:22 39.60360 3.19048 13550 ft 310 kts 246°
2026-04-24 12:22 39.59395 3.16563 12922 ft 307 kts 246°
2026-04-24 12:22 39.58443 3.14110 12351 ft 302 kts 246°
2026-04-24 12:23 39.57508 3.11703 11874 ft 298 kts 246°
2026-04-24 12:23 39.56582 3.09316 11474 ft 299 kts 246°
2026-04-24 12:23 39.55655 3.06933 11027 ft 294 kts 246°
2026-04-24 12:23 39.54741 3.04583 10497 ft 289 kts 245°
2026-04-24 12:24 39.53834 3.02250 10084 ft 290 kts 246°
2026-04-24 12:24 39.52931 2.99926 9676 ft 288 kts 245°
2026-04-24 12:24 39.52058 2.97691 9525 ft 268 kts 246°
2026-04-24 12:24 39.51245 2.95613 9339 ft 252 kts 246°
2026-04-24 12:25 39.50467 2.93618 8973 ft 245 kts 245°
2026-04-24 12:25 39.49700 2.91646 8414 ft 247 kts 244°
2026-04-24 12:25 39.48906 2.89604 7757 ft 261 kts 245°
2026-04-24 12:25 39.48089 2.87508 7340 ft 258 kts 244°
2026-04-24 12:26 39.47285 2.85451 6847 ft 256 kts 244°
2026-04-24 12:26 39.46478 2.83393 6309 ft 256 kts 243°
2026-04-24 12:26 39.45680 2.81358 5991 ft 247 kts 244°
2026-04-24 12:26 39.44929 2.79443 5855 ft 231 kts 244°
2026-04-24 12:27 39.44246 2.77610 5652 ft 219 kts 250°
2026-04-24 12:27 39.43876 2.75751 5320 ft 212 kts 264°
2026-04-24 12:27 39.43860 2.73846 4844 ft 210 kts 278°
2026-04-24 12:27 39.44130 2.72008 4356 ft 206 kts 283°
2026-04-24 12:28 39.44420 2.70209 3896 ft 203 kts 283°
2026-04-24 12:28 39.44704 2.68396 3366 ft 206 kts 283°
2026-04-24 12:28 39.44896 2.67198 3034 ft 204 kts 282°
2026-04-24 12:28 39.45190 2.65423 2564 ft 199 kts 283°
2026-04-24 12:29 39.45474 2.63663 2494 ft 199 kts 283°
2026-04-24 12:29 39.45755 2.61923 2053 ft 198 kts 283°
2026-04-24 12:29 39.46184 2.60245 1999 ft 198 kts 307°
2026-04-24 12:29 39.47194 2.59212 2014 ft 180 kts 343°
2026-04-24 12:30 39.48355 2.59129 2011 ft 156 kts 17°
2026-04-24 12:30 39.49254 2.59749 1946 ft 142 kts 45°
2026-04-24 12:30 39.49819 2.60755 1821 ft 136 kts 60°
2026-04-24 12:30 39.50313 2.61794 1678 ft 135 kts 60°
2026-04-24 12:31 39.50803 2.62824 1477 ft 135 kts 60°
2026-04-24 12:31 39.51296 2.63864 1319 ft 135 kts 61°
2026-04-24 12:31 39.51797 2.64918 1141 ft 138 kts 60°
2026-04-24 12:31 39.52295 2.65968 952 ft 138 kts 60°
2026-04-24 12:32 39.52793 2.67018 782 ft 136 kts 62°
2026-04-24 12:32 39.53295 2.68076 618 ft 138 kts 61°
2026-04-24 12:32 39.53792 2.69123 397 ft 136 kts 61°
2026-04-24 12:32 39.54288 2.70168 253 ft 136 kts 62°
2026-04-24 12:33 39.54790 2.71216 62 ft 136 kts 59°
2026-04-24 12:33 39.55228 2.72156 38 ft 101 kts 58°
2026-04-24 12:33 39.55502 2.72736 38 ft 52 kts 58°
2026-04-24 12:33 39.55663 2.73086 36 ft 29 kts 60°
2026-04-24 12:34 39.55716 2.73302 38 ft 23 kts 86°
2026-04-24 12:34 39.55720 2.73422 38 ft 12 kts 87°
2026-04-24 12:34 39.55720 2.73431 38 ft 0 kts 87°
2026-04-24 12:35 39.55721 2.73439 38 ft 0 kts 87°
2026-04-24 12:35 39.55721 2.73440 38 ft 0 kts 87°